| time (UTC) | temp F | wind direction | speed MPH | gust MPH | rain 1hr in | rain 24hr in | rain mn in | humidity % | barometer mb |
| 20260903204735 | 64 | 225 | 2.0 | 5.0 | 0.01 | 0.51 | 0.49 | 69 | 1008.6 |
| 20260903203716 | 64 | 225 | 4.0 | 7.0 | 0.01 | 0.51 | 0.49 | 71 | 1008.6 |
| 20260903202715 | 64 | 158 | 2.0 | 2.0 | 0.01 | 0.52 | 0.49 | 74 | 1008.6 |
| 20260903201715 | 63 | 158 | 2.0 | 5.0 | 0.01 | 0.53 | 0.49 | 76 | 1008.6 |
| 20260903200735 | 62 | 203 | 2.0 | 6.0 | 0.01 | 0.53 | 0.49 | 76 | 1008.7 |
| 20260903195715 | 62 | 203 | 7.0 | 10.0 | 0.01 | 0.54 | 0.49 | 77 | 1008.8 |
| 20260903194736 | 62 | 248 | 4.0 | 7.0 | 0.00 | 0.54 | 0.48 | 79 | 1008.7 |
| 20260903193715 | 61 | 225 | 4.0 | 6.0 | 0.00 | 0.55 | 0.48 | 79 | 1008.8 |
| 20260903192736 | 61 | 248 | 5.0 | 8.0 | 0.00 | 0.55 | 0.48 | 80 | 1008.7 |
| 20260903191716 | 61 | 203 | 2.0 | 4.0 | 0.00 | 0.56 | 0.48 | 81 | 1008.8 |
| 20260903190755 | 62 | 23 | 1.0 | 2.0 | 0.00 | 0.56 | 0.48 | 81 | 1008.8 |
| 20260903185715 | 61 | 270 | 2.0 | 4.0 | 0.00 | 0.56 | 0.48 | 82 | 1008.7 |
| 20260903184716 | 60 | 270 | 1.0 | 3.0 | 0.00 | 0.56 | 0.48 | 84 | 1008.7 |
| 20260903183756 | 59 | 0.0 | 5.0 | 0.00 | 0.56 | 0.48 | 85 | 1008.6 | |
| 20260903182735 | 59 | 158 | 6.0 | 10.0 | 0.00 | 0.56 | 0.48 | 85 | 1008.6 |
| 20260903181715 | 59 | 180 | 3.0 | 6.0 | 0.00 | 0.56 | 0.48 | 86 | 1008.6 |
| 20260903180715 | 59 | 68 | 1.0 | 4.0 | 0.00 | 0.56 | 0.48 | 87 | 1008.4 |
| 20260903175715 | 59 | 270 | 1.0 | 2.0 | 0.00 | 0.56 | 0.48 | 88 | 1008.5 |
| 20260903174715 | 58 | 270 | 3.0 | 5.0 | 0.00 | 0.56 | 0.48 | 89 | 1008.4 |
| 20260903173716 | 58 | 225 | 3.0 | 6.0 | 0.00 | 0.56 | 0.48 | 89 | 1008.4 |
| 20260903172735 | 58 | 135 | 2.0 | 6.0 | 0.00 | 0.56 | 0.48 | 90 | 1008.4 |
| 20260903171715 | 58 | 270 | 1.0 | 2.0 | 0.00 | 0.56 | 0.48 | 91 | 1008.3 |
| 20260903170716 | 58 | 68 | 2.0 | 4.0 | 0.00 | 0.56 | 0.48 | 92 | 1008.1 |
| 20260903165715 | 57 | 203 | 3.0 | 5.0 | 0.00 | 0.56 | 0.48 | 93 | 1008.1 |
| 20260903164716 | 56 | 180 | 2.0 | 4.0 | 0.00 | 0.56 | 0.48 | 93 | 1007.9 |
| 20260903163715 | 56 | 270 | 1.0 | 2.0 | 0.00 | 0.56 | 0.48 | 93 | 1007.9 |
| 20260903162715 | 56 | 158 | 3.0 | 6.0 | 0.00 | 0.56 | 0.48 | 94 | 1007.8 |
| 20260903161715 | 56 | 293 | 2.0 | 3.0 | 0.00 | 0.56 | 0.48 | 94 | 1007.8 |
| 20260903160736 | 55 | 68 | 1.0 | 2.0 | 0.00 | 0.56 | 0.48 | 94 | 1007.9 |
| 20260903155715 | 55 | 270 | 1.0 | 4.0 | 0.01 | 0.56 | 0.48 | 94 | 1007.8 |
| 20260903154715 | 55 | 68 | 1.0 | 2.0 | 0.02 | 0.56 | 0.48 | 94 | 1007.8 |
| 20260903153715 | 55 | 203 | 2.0 | 6.0 | 0.03 | 0.56 | 0.48 | 94 | 1007.6 |
| 20260903152715 | 55 | 0.0 | 2.0 | 0.04 | 0.56 | 0.48 | 94 | 1007.7 | |
| 20260903151715 | 55 | 248 | 2.0 | 5.0 | 0.10 | 0.56 | 0.48 | 94 | 1007.8 |
| 20260903150716 | 55 | 0 | 1.0 | 3.0 | 0.20 | 0.56 | 0.48 | 94 | 1007.8 |
| 20260903145715 | 55 | 293 | 1.0 | 2.0 | 0.22 | 0.55 | 0.47 | 94 | 1007.7 |
| 20260903144716 | 55 | 248 | 2.0 | 4.0 | 0.23 | 0.54 | 0.46 | 94 | 1007.7 |
| 20260903143736 | 55 | 0.0 | 0.0 | 0.24 | 0.53 | 0.45 | 94 | 1007.6 | |
| 20260903142716 | 55 | 0.0 | 2.0 | 0.24 | 0.52 | 0.44 | 93 | 1007.6 | |
| 20260903141716 | 55 | 45 | 1.0 | 2.0 | 0.20 | 0.46 | 0.38 | 93 | 1007.5 |
| 20260903140715 | 55 | 0.0 | 0.0 | 0.11 | 0.36 | 0.28 | 93 | 1007.5 | |
| 20260903135716 | 55 | 293 | 1.0 | 2.0 | 0.08 | 0.33 | 0.25 | 93 | 1007.4 |
| 20260903134735 | 55 | 225 | 1.0 | 2.0 | 0.06 | 0.31 | 0.23 | 93 | 1007.5 |
| 20260903133716 | 55 | 0.0 | 0.0 | 0.05 | 0.29 | 0.21 | 93 | 1007.5 | |
| 20260903132715 | 55 | 68 | 1.0 | 3.0 | 0.06 | 0.28 | 0.20 | 93 | 1007.3 |
| 20260903131716 | 55 | 135 | 2.0 | 4.0 | 0.06 | 0.26 | 0.18 | 93 | 1007.2 |
| 20260903130715 | 55 | 68 | 2.0 | 3.0 | 0.07 | 0.25 | 0.17 | 93 | 1007.1 |
| 20260903125715 | 55 | 338 | 2.0 | 4.0 | 0.08 | 0.25 | 0.17 | 93 | 1007.0 |
| 20260903124715 | 55 | 0.0 | 1.0 | 0.08 | 0.25 | 0.17 | 93 | 1007.0 | |
| 20260903123716 | 55 | 0.0 | 1.0 | 0.08 | 0.24 | 0.16 | 93 | 1007.1 | |
| 20260903122715 | 55 | 0 | 1.0 | 2.0 | 0.06 | 0.22 | 0.14 | 93 | 1007.1 |
| 20260903121716 | 55 | 68 | 4.0 | 7.0 | 0.05 | 0.20 | 0.12 | 92 | 1006.9 |
| 20260903120716 | 55 | 180 | 1.0 | 4.0 | 0.04 | 0.18 | 0.10 | 92 | 1006.9 |
| 20260903115735 | 55 | 45 | 2.0 | 4.0 | 0.03 | 0.17 | 0.09 | 92 | 1006.8 |
| 20260903114716 | 55 | 293 | 1.0 | 3.0 | 0.06 | 0.17 | 0.09 | 92 | 1006.9 |
| 20260903113715 | 55 | 45 | 1.0 | 3.0 | 0.07 | 0.16 | 0.08 | 92 | 1007.0 |
| 20260903112715 | 55 | 23 | 1.0 | 2.0 | 0.07 | 0.16 | 0.08 | 92 | 1006.9 |
| 20260903111715 | 56 | 68 | 1.0 | 3.0 | 0.07 | 0.15 | 0.07 | 91 | 1006.9 |
| 20260903110755 | 56 | 158 | 3.0 | 6.0 | 0.06 | 0.14 | 0.06 | 90 | 1006.9 |
| 20260903105715 | 56 | 270 | 2.0 | 4.0 | 0.06 | 0.14 | 0.06 | 89 | 1006.9 |
| 20260903104715 | 56 | 0.0 | 1.0 | 0.03 | 0.11 | 0.03 | 89 | 1006.9 | |
| 20260903103735 | 57 | 0.0 | 2.0 | 0.01 | 0.09 | 0.01 | 89 | 1006.9 | |
| 20260903102715 | 57 | 0.0 | 1.0 | 0.01 | 0.09 | 0.01 | 89 | 1006.7 | |
| 20260903101715 | 56 | 0 | 1.0 | 2.0 | 0.00 | 0.08 | 0.00 | 88 | 1006.6 |
| 20260903100715 | 56 | 0.0 | 1.0 | 0.00 | 0.08 | 0.00 | 88 | 1006.6 | |
| 20260903095715 | 56 | 23 | 1.0 | 3.0 | 0.00 | 0.08 | 0.00 | 88 | 1006.4 |
| 20260903094715 | 56 | 0.0 | 0.0 | 0.00 | 0.08 | 0.00 | 89 | 1006.3 | |
| 20260903093715 | 56 | 0.0 | 1.0 | 0.00 | 0.08 | 0.00 | 89 | 1006.4 | |
| 20260903092716 | 56 | 45 | 1.0 | 4.0 | 0.00 | 0.08 | 0.00 | 89 | 1006.4 |
| 20260903091736 | 56 | 225 | 1.0 | 3.0 | 0.00 | 0.08 | 0.00 | 88 | 1006.4 |
| 20260903090715 | 56 | 45 | 1.0 | 3.0 | 0.00 | 0.08 | 0.00 | 88 | 1006.4 |
| 20260903085715 | 56 | 203 | 3.0 | 5.0 | 0.00 | 0.08 | 0.00 | 88 | 1006.6 |
| 20260903084716 | 56 | 45 | 1.0 | 2.0 | 0.00 | 0.08 | 0.00 | 88 | 1006.7 |
| 20260903083715 | 56 | 23 | 2.0 | 3.0 | 0.00 | 0.08 | 0.00 | 88 | 1006.6 |
| 20260903082715 | 56 | 270 | 2.0 | 6.0 | 0.00 | 0.08 | 0.00 | 87 | 1006.7 |
| 20260903081715 | 56 | 68 | 1.0 | 2.0 | 0.00 | 0.08 | 0.00 | 87 | 1006.6 |
| 20260903080715 | 56 | 0.0 | 1.0 | 0.00 | 0.08 | 0.00 | 87 | 1006.5 | |
| 20260903075715 | 57 | 45 | 2.0 | 4.0 | 0.00 | 0.08 | 0.00 | 87 | 1006.5 |
| 20260903074715 | 57 | 0.0 | 2.0 | 0.00 | 0.08 | 0.00 | 87 | 1006.5 | |
| 20260903073715 | 57 | 0.0 | 0.0 | 0.00 | 0.08 | 0.00 | 87 | 1006.7 | |
| 20260903072715 | 57 | 0.0 | 1.0 | 0.00 | 0.08 | 0.00 | 87 | 1006.6 | |
| 20260903071715 | 57 | 0.0 | 0.0 | 0.00 | 0.08 | 0.00 | 87 | 1006.6 | |
| 20260903070715 | 57 | 68 | 1.0 | 2.0 | 0.00 | 0.08 | 0.00 | 87 | 1006.6 |
| 20260903065736 | 57 | 45 | 1.0 | 2.0 | 0.00 | 0.08 | 0.08 | 87 | 1006.6 |
| 20260903064716 | 57 | 90 | 2.0 | 5.0 | 0.00 | 0.08 | 0.08 | 87 | 1006.6 |
| 20260903063716 | 57 | 0.0 | 0.0 | 0.00 | 0.08 | 0.08 | 87 | 1006.7 | |
| 20260903062736 | 57 | 315 | 1.0 | 2.0 | 0.00 | 0.08 | 0.08 | 87 | 1006.6 |
| 20260903061716 | 57 | 158 | 1.0 | 2.0 | 0.00 | 0.08 | 0.08 | 87 | 1006.7 |
| 20260903060716 | 57 | 0.0 | 1.0 | 0.00 | 0.08 | 0.08 | 87 | 1006.6 | |
| 20260903055716 | 57 | 45 | 1.0 | 4.0 | 0.00 | 0.08 | 0.08 | 88 | 1006.6 |
| 20260903054736 | 56 | 0.0 | 1.0 | 0.00 | 0.08 | 0.08 | 89 | 1006.7 | |
| 20260903053716 | 56 | 90 | 1.0 | 2.0 | 0.00 | 0.08 | 0.08 | 89 | 1006.6 |
| 20260903052716 | 56 | 0.0 | 1.0 | 0.00 | 0.08 | 0.08 | 89 | 1006.6 | |
| 20260903051716 | 56 | 0.0 | 1.0 | 0.00 | 0.08 | 0.08 | 88 | 1006.5 | |
| 20260903050716 | 56 | 0.0 | 0.0 | 0.00 | 0.08 | 0.08 | 88 | 1006.6 | |
| 20260903045716 | 57 | 0.0 | 0.0 | 0.00 | 0.08 | 0.08 | 88 | 1006.5 | |
| 20260903044716 | 57 | 68 | 1.0 | 2.0 | 0.00 | 0.08 | 0.08 | 87 | 1006.4 |
| 20260903043716 | 57 | 0.0 | 1.0 | 0.00 | 0.08 | 0.08 | 87 | 1006.3 | |
| 20260903042736 | 58 | 180 | 1.0 | 1.0 | 0.00 | 0.09 | 0.08 | 87 | 1006.1 |
| 20260903041716 | 57 | 0.0 | 1.0 | 0.00 | 0.09 | 0.08 | 88 | 1006.1 | |
| 20260903040716 | 58 | 0.0 | 0.0 | 0.00 | 0.09 | 0.08 | 88 | 1006.1 | |
| 20260903035716 | 57 | 0.0 | 1.0 | 0.00 | 0.09 | 0.08 | 88 | 1006.0 | |
| 20260903034716 | 57 | 0.0 | 0.0 | 0.00 | 0.09 | 0.08 | 87 | 1005.9 | |
| 20260903033716 | 57 | 0.0 | 0.0 | 0.00 | 0.09 | 0.08 | 86 | 1005.8 | |
| 20260903032716 | 57 | 68 | 1.0 | 2.0 | 0.00 | 0.10 | 0.08 | 86 | 1005.6 |
| 20260903031716 | 57 | 68 | 1.0 | 2.0 | 0.00 | 0.10 | 0.08 | 84 | 1005.5 |
| 20260903030816 | 58 | 68 | 2.0 | 4.0 | 0.00 | 0.10 | 0.08 | 83 | 1005.5 |
| 20260903025716 | 59 | 0.0 | 0.0 | 0.00 | 0.10 | 0.08 | 82 | 1005.4 | |
| 20260903024716 | 60 | 0.0 | 0.0 | 0.00 | 0.12 | 0.08 | 80 | 1005.2 | |
| 20260903023716 | 61 | 0.0 | 0.0 | 0.00 | 0.12 | 0.08 | 75 | 1005.2 | |
| 20260903022716 | 62 | 225 | 3.0 | 5.0 | 0.00 | 0.12 | 0.08 | 72 | 1005.1 |
| 20260903021716 | 62 | 180 | 2.0 | 4.0 | 0.00 | 0.12 | 0.08 | 71 | 1005.0 |
| 20260903020716 | 62 | 225 | 4.0 | 7.0 | 0.00 | 0.12 | 0.08 | 72 | 1005.1 |
| 20260903015716 | 62 | 225 | 4.0 | 6.0 | 0.00 | 0.12 | 0.08 | 72 | 1005.0 |
| 20260903014716 | 62 | 225 | 7.0 | 10.0 | 0.00 | 0.12 | 0.08 | 71 | 1005.1 |
| 20260903013716 | 63 | 225 | 4.0 | 6.0 | 0.00 | 0.12 | 0.08 | 69 | 1005.0 |
| 20260903012756 | 63 | 225 | 2.0 | 4.0 | 0.00 | 0.12 | 0.08 | 68 | 1004.9 |
| 20260903011716 | 64 | 270 | 1.0 | 5.0 | 0.00 | 0.12 | 0.08 | 66 | 1004.8 |
| 20260903010716 | 64 | 225 | 4.0 | 8.0 | 0.00 | 0.12 | 0.08 | 67 | 1004.7 |
| 20260903005716 | 64 | 225 | 4.0 | 8.0 | 0.00 | 0.12 | 0.08 | 68 | 1004.6 |
| 20260903004717 | 63 | 225 | 7.0 | 9.0 | 0.00 | 0.12 | 0.08 | 68 | 1004.6 |
| 20260903003716 | 64 | 225 | 9.0 | 18.0 | 0.00 | 0.12 | 0.08 | 68 | 1004.6 |
| 20260903002716 | 64 | 225 | 5.0 | 8.0 | 0.00 | 0.13 | 0.08 | 72 | 1004.5 |
| 20260903001716 | 62 | 225 | 9.0 | 13.0 | 0.00 | 0.13 | 0.08 | 80 | 1004.4 |
| 20260903000716 | 62 | 23 | 1.0 | 4.0 | 0.00 | 0.13 | 0.08 | 85 | 1004.2 |
| 20260902235736 | 62 | 225 | 4.0 | 6.0 | 0.00 | 0.13 | 0.08 | 86 | 1004.0 |
| 20260902234716 | 62 | 248 | 2.0 | 4.0 | 0.00 | 0.13 | 0.08 | 86 | 1003.9 |
| 20260902233716 | 62 | 225 | 4.0 | 8.0 | 0.00 | 0.13 | 0.08 | 87 | 1003.8 |
| 20260902232716 | 62 | 45 | 2.0 | 4.0 | 0.00 | 0.13 | 0.08 | 88 | 1003.5 |
| 20260902231716 | 60 | 45 | 2.0 | 5.0 | 0.00 | 0.13 | 0.08 | 89 | 1003.5 |
| 20260902230736 | 60 | 158 | 3.0 | 6.0 | 0.00 | 0.13 | 0.08 | 88 | 1003.6 |
| 20260902225716 | 60 | 180 | 2.0 | 6.0 | 0.00 | 0.13 | 0.08 | 87 | 1003.5 |
| 20260902224717 | 60 | 203 | 1.0 | 2.0 | 0.00 | 0.13 | 0.08 | 86 | 1003.2 |
| 20260902223716 | 60 | 225 | 1.0 | 4.0 | 0.01 | 0.13 | 0.08 | 86 | 1003.0 |
| 20260902222716 | 60 | 45 | 4.0 | 10.0 | 0.01 | 0.13 | 0.08 | 86 | 1002.9 |
| 20260902221716 | 60 | 248 | 1.0 | 3.0 | 0.01 | 0.13 | 0.08 | 87 | 1002.8 |
| 20260902220716 | 59 | 225 | 4.0 | 6.0 | 0.01 | 0.13 | 0.08 | 87 | 1002.7 |
| 20260902215716 | 59 | 68 | 1.0 | 2.0 | 0.01 | 0.13 | 0.08 | 88 | 1002.7 |
| 20260902214716 | 59 | 45 | 1.0 | 3.0 | 0.02 | 0.13 | 0.08 | 88 | 1002.8 |
| 20260902213716 | 59 | 0.0 | 4.0 | 0.01 | 0.12 | 0.07 | 88 | 1002.8 | |
| 20260902212716 | 59 | 68 | 1.0 | 3.0 | 0.02 | 0.12 | 0.07 | 88 | 1002.9 |
| 20260902211716 | 59 | 0.0 | 1.0 | 0.03 | 0.12 | 0.07 | 88 | 1002.9 | |
| 20260902210716 | 59 | 23 | 1.0 | 3.0 | 0.03 | 0.12 | 0.07 | 88 | 1002.9 |
| 20260902205736 | 59 | 225 | 3.0 | 4.0 | 0.04 | 0.12 | 0.07 | 88 | 1003.0 |